Location: Unspecified
(38.9820°N, 94.4650°W)
Time: 23:04:12
(UTC-05:00)

CZ-3 Stage 3 - Visible Passes

Search period start: 20 September 2014 00:00
Search period end: 30 September 2014 00:00
Orbit: 410 x 34835 km, 30.8° (Epoch: 20 September)

Date Brightness Start Highest point End Pass type
(mag) Time Alt. Az. Time Alt. Az. Time Alt. Az.
21 Sep 7.0 00:22:06 10° S 08:15:51 59° S 08:28:15 10° E visible
21 Sep 8.5 23:28:09 10° SE 04:04:17 39° SE 04:49:02 10° E visible
24 Sep 6.9 00:16:17 10° S 08:13:38 61° S 08:25:37 10° E visible
24 Sep 8.5 23:12:31 10° SE 04:02:54 41° SE 04:46:52 10° E visible
27 Sep 6.8 00:10:40 10° S 08:11:15 62° S 08:22:51 10° E visible
27 Sep 8.4 22:57:04 10° SE 04:01:22 43° SE 04:44:30 10° E visible
